Regional Weather Roundup
Issued by NWS

Home | Current Version | Previous Version | Text Only | Print | Product List | Glossary On
Versions: 1 2 3 4 5 6 7 8 9 10 11 12 13 14 15 16 17 18 19 20 21 22 23 24 25 26 27 28 29 30 31 32 33 34 35 36 37 38 39 40 41 42 43 44 45 46 47 48 49 50
000
ASUS43 KLMK 290102
RWRKY
KENTUCKY REGIONAL WEATHER ROUNDUP
NATIONAL WEATHER SERVICE LOUISVILLE KY
900 PM EDT THU APR 28 2016

NOTE "FAIR" INDICATES FEW OR NO CLOUDS BELOW 12,000 FEET
WITH NO SIGNIFICANT WEATHER AND/OR OBSTRUCTIONS TO VISIBILITY.

KYZ001>023-026-027-061>063-070>075-290200-
WESTERN AND SOUTH CENTRAL KENTUCKY

CITY           SKY/WX    TMP DP  RH WIND       PRES   REMARKS
PADUCAH        PTCLDY    68  50  52 CALM      29.94R
HENDERSON      CLEAR     70  50  49 W5        29.92R
OWENSBORO      CLEAR     70  56  61 W6        29.93R
HOPKINSVILLE   CLEAR     71  52  51 W6        29.95R
BOWLING GREEN  CLEAR     73  50  44 W6        29.93R
GLASGOW        NOT AVBL
$$

KYZ024-025-028>034-038-045-046-053-290200-
NORTH CENTRAL KENTUCKY

CITY           SKY/WX    TMP DP  RH WIND       PRES   REMARKS
LOUISVILLE/SDF PTCLDY    68  48  48 W7        29.90R
LOUISVILLE/LOU CLEAR     71  47  42 W6        29.91R
FORT KNOX      CLEAR     66  50  55 W5        29.91R
$$

KYZ035>037-039>044-047>052-055>060-089>105-290200-
NORTHEAST KENTUCKY

CITY           SKY/WX    TMP DP  RH WIND       PRES   REMARKS
LEXINGTON      CLEAR     69  47  45 W7        29.91R
COVINGTON      PTCLDY    65  50  58 W8        29.90R
FRANKFORT      CLEAR     70  45  40 W5        29.90R
$$

KYZ054-064>069-076>088-106>120-290200-
SOUTHEAST KENTUCKY

CITY           SKY/WX    TMP DP  RH WIND       PRES   REMARKS
JACKSON        CLEAR     68  58  70 SW5       29.91R
LONDON         CLEAR     70  58  65 W3        29.92R
SOMERSET       NOT AVBL
MIDDLESBORO    NOT AVBL
MONTICELLO     CLEAR     68  57  68 W7        29.95R
$$





USA.gov is the U.S. government's official web portal to all federal, state and local government web resources and services.